AUR751 EGHQ-EGKK

Flight info

Callsign AUR751
Flight time 0h 45m
Altitude 27000
Route DAWLY DCT ELRIP DCT OTMET
Aircraft B38M/M-SDE1FGHILORVWXY/HB1

Departure

Time 2026-04-26 13:05
Airport Cornwall Airport Newquay (EGHQ)

Arrival

Time 2026-04-26 13:51
Airport London Gatwick Airport (EGKK)
Time Latitude Longitude Altitude Speed Heading
2026-04-26 12:33 50.44653 -5.00386 338 ft 0 kts 76°
2026-04-26 12:58 50.44640 -5.00429 333 ft 4 kts 48°
2026-04-26 12:58 50.44619 -5.00453 332 ft 4 kts 24°
2026-04-26 12:58 50.44619 -5.00454 330 ft 0 kts 24°
2026-04-26 13:03 50.44624 -5.00453 331 ft 3 kts
2026-04-26 13:03 50.44650 -5.00500 330 ft 13 kts 298°
2026-04-26 13:03 50.44725 -5.00711 324 ft 29 kts 300°
2026-04-26 13:04 50.44807 -5.00976 320 ft 26 kts 276°
2026-04-26 13:04 50.44733 -5.01150 315 ft 18 kts 204°
2026-04-26 13:04 50.44668 -5.01104 316 ft 0 kts 119°
2026-04-26 13:04 50.44666 -5.01098 319 ft 4 kts 119°
2026-04-26 13:05 50.44555 -5.00803 325 ft 71 kts 120°
2026-04-26 13:05 50.44175 -4.99793 351 ft 140 kts 120°
2026-04-26 13:05 50.43662 -4.98394 938 ft 152 kts 118°
2026-04-26 13:05 50.43409 -4.96770 1777 ft 156 kts 87°
2026-04-26 13:06 50.43729 -4.95024 2371 ft 187 kts 67°
2026-04-26 13:06 50.44326 -4.92989 3015 ft 216 kts 76°
2026-04-26 13:06 50.44589 -4.90567 3848 ft 235 kts 83°
2026-04-26 13:06 50.44831 -4.87923 4684 ft 254 kts 82°
2026-04-26 13:07 50.45090 -4.85129 5606 ft 267 kts 82°
2026-04-26 13:07 50.45366 -4.82196 6767 ft 271 kts 82°
2026-04-26 13:07 50.45641 -4.79274 7783 ft 278 kts 82°
2026-04-26 13:07 50.45926 -4.76245 8856 ft 283 kts 82°
2026-04-26 13:08 50.46217 -4.73154 9907 ft 289 kts 82°
2026-04-26 13:08 50.46514 -4.69992 10874 ft 298 kts 82°
2026-04-26 13:08 50.46822 -4.66694 11732 ft 311 kts 82°
2026-04-26 13:08 50.47137 -4.63324 12853 ft 314 kts 82°
2026-04-26 13:09 50.47458 -4.59884 13892 ft 321 kts 82°
2026-04-26 13:09 50.47781 -4.56388 14950 ft 326 kts 83°
2026-04-26 13:09 50.48109 -4.52818 15999 ft 333 kts 83°
2026-04-26 13:09 50.48440 -4.49230 16952 ft 339 kts 82°
2026-04-26 13:10 50.48781 -4.45525 17909 ft 345 kts 83°
2026-04-26 13:10 50.49125 -4.41749 18812 ft 351 kts 83°
2026-04-26 13:10 50.49474 -4.37915 19712 ft 356 kts 83°
2026-04-26 13:10 50.49827 -4.34030 20568 ft 362 kts 83°
2026-04-26 13:11 50.50184 -4.30078 21389 ft 367 kts 83°
2026-04-26 13:11 50.50540 -4.26126 22170 ft 373 kts 83°
2026-04-26 13:11 50.50904 -4.22064 22950 ft 378 kts 83°
2026-04-26 13:11 50.51273 -4.17944 23695 ft 383 kts 83°
2026-04-26 13:12 50.51644 -4.13771 24450 ft 387 kts 84°
2026-04-26 13:12 50.52018 -4.09555 25144 ft 393 kts 84°
2026-04-26 13:12 50.52395 -4.05275 25822 ft 398 kts 84°
2026-04-26 13:12 50.52775 -4.00952 26368 ft 401 kts 84°
2026-04-26 13:13 50.53154 -3.96615 26665 ft 399 kts 84°
2026-04-26 13:13 50.53531 -3.92293 26926 ft 399 kts 84°
2026-04-26 13:13 50.53905 -3.87984 27183 ft 398 kts 84°
2026-04-26 13:13 50.54277 -3.83665 27301 ft 398 kts 84°
2026-04-26 13:14 50.54648 -3.79348 27293 ft 398 kts 84°
2026-04-26 13:14 50.55013 -3.75084 27281 ft 397 kts 84°
2026-04-26 13:14 50.55380 -3.70779 27287 ft 398 kts 84°
2026-04-26 13:14 50.55746 -3.66459 27283 ft 398 kts 84°
2026-04-26 13:15 50.56111 -3.62143 27285 ft 398 kts 84°
2026-04-26 13:15 50.56475 -3.57819 27289 ft 398 kts 84°
2026-04-26 13:15 50.56832 -3.53554 27294 ft 397 kts 84°
2026-04-26 13:15 50.57076 -3.50639 27285 ft 397 kts 84°
2026-04-26 13:16 50.57632 -3.44946 27293 ft 398 kts 80°
2026-04-26 13:16 50.58149 -3.40660 27299 ft 398 kts 81°
2026-04-26 13:16 50.58649 -3.36388 27293 ft 398 kts 81°
2026-04-26 13:16 50.59145 -3.32104 27293 ft 398 kts 81°
2026-04-26 13:17 50.60129 -3.23534 27294 ft 398 kts 81°
2026-04-26 13:17 50.60618 -3.19242 27294 ft 398 kts 81°
2026-04-26 13:18 50.61593 -3.10650 27291 ft 398 kts 81°
2026-04-26 13:18 50.62078 -3.06354 27285 ft 398 kts 81°
2026-04-26 13:18 50.63041 -2.97819 27284 ft 398 kts 81°
2026-04-26 13:19 50.63528 -2.93518 27285 ft 398 kts 81°
2026-04-26 13:19 50.64013 -2.89214 27284 ft 398 kts 81°
2026-04-26 13:19 50.64496 -2.84914 27279 ft 399 kts 81°
2026-04-26 13:19 50.64979 -2.80607 27274 ft 398 kts 81°
2026-04-26 13:20 50.65460 -2.76304 27275 ft 398 kts 81°
2026-04-26 13:20 50.65937 -2.72007 27275 ft 398 kts 81°
2026-04-26 13:20 50.66254 -2.69151 27275 ft 399 kts 81°
2026-04-26 13:20 50.66730 -2.64842 27270 ft 399 kts 81°
2026-04-26 13:21 50.67359 -2.59131 27270 ft 399 kts 81°
2026-04-26 13:21 50.67678 -2.56227 27273 ft 399 kts 81°
2026-04-26 13:21 50.68122 -2.51917 27163 ft 394 kts 85°
2026-04-26 13:21 50.68055 -2.47633 26823 ft 387 kts 97°
2026-04-26 13:22 50.67863 -2.43515 26791 ft 374 kts 95°
2026-04-26 13:22 50.67698 -2.39494 26761 ft 362 kts 95°
2026-04-26 13:22 50.67531 -2.35518 26720 ft 371 kts 95°
2026-04-26 13:22 50.67356 -2.31404 26668 ft 378 kts 95°
2026-04-26 13:23 50.67177 -2.27220 26634 ft 384 kts 95°
2026-04-26 13:23 50.66995 -2.23015 26604 ft 385 kts 95°
2026-04-26 13:23 50.66811 -2.18800 26563 ft 385 kts 95°
2026-04-26 13:23 50.66626 -2.14587 26562 ft 385 kts 95°
2026-04-26 13:24 50.66439 -2.10367 26489 ft 385 kts 95°
2026-04-26 13:24 50.66254 -2.06213 26346 ft 384 kts 95°
2026-04-26 13:24 50.66115 -2.01958 26285 ft 383 kts 89°
2026-04-26 13:24 50.66213 -1.97810 25900 ft 386 kts 89°
2026-04-26 13:25 50.66276 -1.93508 24951 ft 393 kts 89°
2026-04-26 13:25 50.66326 -1.89225 24521 ft 388 kts 90°
2026-04-26 13:25 50.66369 -1.85002 24178 ft 384 kts 90°
2026-04-26 13:25 50.66407 -1.80811 23772 ft 381 kts 90°
2026-04-26 13:26 50.66443 -1.76649 23364 ft 378 kts 90°
2026-04-26 13:26 50.66477 -1.72533 22960 ft 375 kts 90°
2026-04-26 13:26 50.66510 -1.68429 22557 ft 372 kts 90°
2026-04-26 13:26 50.66541 -1.64359 22158 ft 369 kts 90°
2026-04-26 13:27 50.66569 -1.60321 21764 ft 367 kts 90°
2026-04-26 13:27 50.66598 -1.56320 21385 ft 363 kts 90°
2026-04-26 13:27 50.66567 -1.52407 21014 ft 360 kts 92°
2026-04-26 13:27 50.66517 -1.48476 20633 ft 357 kts 92°
2026-04-26 13:28 50.66470 -1.44584 20282 ft 354 kts 92°
2026-04-26 13:28 50.66425 -1.40717 19907 ft 350 kts 92°
2026-04-26 13:28 50.66381 -1.36899 19547 ft 347 kts 92°
2026-04-26 13:28 50.66604 -1.33133 19102 ft 348 kts 74°
2026-04-26 13:29 50.67458 -1.29592 18782 ft 344 kts 69°
2026-04-26 13:29 50.68031 -1.27274 18547 ft 341 kts 69°
2026-04-26 13:29 50.69192 -1.22638 18082 ft 338 kts 69°
2026-04-26 13:29 50.70059 -1.19210 17734 ft 334 kts 69°
2026-04-26 13:30 50.70919 -1.15818 17376 ft 332 kts 69°
2026-04-26 13:30 50.71779 -1.12442 17034 ft 329 kts 69°
2026-04-26 13:30 50.72620 -1.09140 16695 ft 326 kts 69°
2026-04-26 13:30 50.73459 -1.05835 16364 ft 323 kts 69°
2026-04-26 13:31 50.74291 -1.02554 16019 ft 320 kts 69°
2026-04-26 13:31 50.75115 -0.99303 15687 ft 317 kts 69°
2026-04-26 13:31 50.75930 -0.96081 15359 ft 315 kts 69°
2026-04-26 13:31 50.76739 -0.92877 15024 ft 313 kts 69°
2026-04-26 13:32 50.77539 -0.89705 14705 ft 311 kts 69°
2026-04-26 13:32 50.78340 -0.86525 14376 ft 312 kts 69°
2026-04-26 13:32 50.79142 -0.83335 14045 ft 312 kts 69°
2026-04-26 13:32 50.79943 -0.80146 13721 ft 312 kts 69°
2026-04-26 13:33 50.80743 -0.76952 13404 ft 312 kts 69°
2026-04-26 13:33 50.81380 -0.73700 13161 ft 307 kts 81°
2026-04-26 13:33 50.81739 -0.70397 12947 ft 303 kts 81°
2026-04-26 13:33 50.82106 -0.67113 12704 ft 302 kts 80°
2026-04-26 13:34 50.82475 -0.63888 12545 ft 301 kts 80°
2026-04-26 13:34 50.82850 -0.60621 12333 ft 301 kts 81°
2026-04-26 13:34 50.83226 -0.57360 12119 ft 299 kts 80°
2026-04-26 13:34 50.83470 -0.55229 12023 ft 297 kts 80°
2026-04-26 13:35 50.83968 -0.50938 11744 ft 297 kts 80°
2026-04-26 13:35 50.84341 -0.47709 11511 ft 296 kts 80°
2026-04-26 13:35 50.84708 -0.44509 11292 ft 295 kts 80°
2026-04-26 13:35 50.85071 -0.41334 11083 ft 292 kts 80°
2026-04-26 13:36 50.85432 -0.38173 10888 ft 292 kts 80°
2026-04-26 13:36 50.85792 -0.35011 10680 ft 291 kts 80°
2026-04-26 13:36 50.86149 -0.31872 10482 ft 289 kts 80°
2026-04-26 13:36 50.86501 -0.28773 10282 ft 289 kts 80°
2026-04-26 13:37 50.86854 -0.25650 10086 ft 287 kts 80°
2026-04-26 13:37 50.87204 -0.22547 9882 ft 286 kts 80°
2026-04-26 13:37 50.87550 -0.19483 9684 ft 279 kts 80°
2026-04-26 13:37 50.87886 -0.16488 9487 ft 273 kts 80°
2026-04-26 13:38 50.88214 -0.13562 9304 ft 266 kts 80°
2026-04-26 13:38 50.88533 -0.10713 9120 ft 260 kts 80°
2026-04-26 13:38 50.88972 -0.07984 8919 ft 254 kts 63°
2026-04-26 13:38 50.90115 -0.05922 8700 ft 249 kts 32°
2026-04-26 13:39 50.91737 -0.04963 8538 ft 251 kts 13°
2026-04-26 13:39 50.93452 -0.04651 8394 ft 252 kts 354°
2026-04-26 13:39 50.95094 -0.05521 8224 ft 251 kts 327°
2026-04-26 13:39 50.96314 -0.07450 8049 ft 246 kts 301°
2026-04-26 13:40 50.96937 -0.09931 7887 ft 239 kts 285°
2026-04-26 13:40 50.97378 -0.12450 7714 ft 233 kts 284°
2026-04-26 13:40 50.97791 -0.14914 7546 ft 228 kts 284°
2026-04-26 13:40 50.98184 -0.17322 7381 ft 222 kts 283°
2026-04-26 13:41 50.98565 -0.19689 7065 ft 221 kts 283°
2026-04-26 13:41 50.98947 -0.22090 6360 ft 234 kts 283°
2026-04-26 13:41 50.99354 -0.24672 5605 ft 247 kts 283°
2026-04-26 13:41 50.99773 -0.27364 4875 ft 255 kts 283°
2026-04-26 13:42 51.00205 -0.30134 4160 ft 261 kts 283°
2026-04-26 13:42 51.00644 -0.32966 3441 ft 266 kts 283°
2026-04-26 13:42 51.01106 -0.35862 2971 ft 271 kts 284°
2026-04-26 13:42 51.01570 -0.38676 2975 ft 255 kts 284°
2026-04-26 13:43 51.02006 -0.41334 2992 ft 241 kts 284°
2026-04-26 13:43 51.02417 -0.43834 3000 ft 227 kts 284°
2026-04-26 13:43 51.02804 -0.46193 2976 ft 214 kts 283°
2026-04-26 13:43 51.03166 -0.48432 2999 ft 207 kts 283°
2026-04-26 13:44 51.03601 -0.50548 2993 ft 200 kts 300°
2026-04-26 13:44 51.04609 -0.51895 2916 ft 185 kts 343°
2026-04-26 13:44 51.05845 -0.52345 3039 ft 183 kts 350°
2026-04-26 13:44 51.07091 -0.52751 3072 ft 182 kts 351°
2026-04-26 13:45 51.08337 -0.53022 3019 ft 176 kts
2026-04-26 13:45 51.09410 -0.52300 2950 ft 164 kts 47°
2026-04-26 13:45 51.10040 -0.50827 2887 ft 159 kts 65°
2026-04-26 13:45 51.10467 -0.49262 2924 ft 151 kts 72°
2026-04-26 13:46 51.10787 -0.47684 2972 ft 149 kts 76°
2026-04-26 13:46 51.11047 -0.46111 2993 ft 149 kts 78°
2026-04-26 13:46 51.11282 -0.44509 2988 ft 148 kts 78°
2026-04-26 13:46 51.11510 -0.42909 2999 ft 148 kts 79°
2026-04-26 13:47 51.11734 -0.41308 3029 ft 148 kts 79°
2026-04-26 13:47 51.11956 -0.39700 2931 ft 149 kts 79°
2026-04-26 13:47 51.12175 -0.38109 2686 ft 143 kts 79°
2026-04-26 13:47 51.12387 -0.36566 2322 ft 142 kts 78°
2026-04-26 13:48 51.12592 -0.35091 2029 ft 136 kts 78°
2026-04-26 13:48 51.12794 -0.33629 1635 ft 135 kts 77°
2026-04-26 13:48 51.12993 -0.32180 1315 ft 129 kts 78°
2026-04-26 13:48 51.13178 -0.30808 1250 ft 126 kts 76°
2026-04-26 13:49 51.13377 -0.29459 1200 ft 126 kts 76°
2026-04-26 13:49 51.13578 -0.28078 1080 ft 131 kts 77°
2026-04-26 13:49 51.13771 -0.26656 954 ft 131 kts 78°
2026-04-26 13:49 51.13956 -0.25236 808 ft 131 kts 78°
2026-04-26 13:50 51.14151 -0.23809 652 ft 133 kts 76°
2026-04-26 13:50 51.14355 -0.22374 466 ft 136 kts 77°
2026-04-26 13:50 51.14555 -0.20905 286 ft 135 kts 76°
2026-04-26 13:50 51.14746 -0.19541 208 ft 111 kts 77°
2026-04-26 13:51 51.14863 -0.18715 208 ft 45 kts 72°
2026-04-26 13:51 51.15007 -0.18379 208 ft 20 kts 52°
2026-04-26 13:51 51.15073 -0.18248 211 ft 10 kts 50°
2026-04-26 13:51 51.15112 -0.18171 206 ft 8 kts 56°
2026-04-26 13:52 51.15126 -0.18094 207 ft 2 kts 76°
2026-04-26 13:52 51.15133 -0.18047 208 ft 7 kts 76°
2026-04-26 13:52 51.15149 -0.17930 212 ft 16 kts 78°
2026-04-26 13:52 51.15179 -0.17711 211 ft 23 kts 78°
2026-04-26 13:53 51.15217 -0.17440 217 ft 25 kts 77°
2026-04-26 13:53 51.15251 -0.17192 206 ft 25 kts 77°
2026-04-26 13:53 51.15285 -0.16948 206 ft 14 kts 78°
2026-04-26 13:53 51.15307 -0.16785 215 ft 16 kts 77°
2026-04-26 13:54 51.15291 -0.16649 210 ft 12 kts 118°
2026-04-26 13:54 51.15298 -0.16506 214 ft 12 kts 81°
2026-04-26 13:54 51.15313 -0.16366 214 ft 10 kts 77°
2026-04-26 13:55 51.15357 -0.16275 206 ft 3 kts 358°
2026-04-26 13:55 51.15366 -0.16275 213 ft 0 kts 357°
2026-04-26 13:55 51.15369 -0.16276 206 ft 0 kts 357°